Weather History for Buffalo, WY

Change the Weather History Date:

Thursday, April 18, 2013

  Actual Average Record
Temperature  
Mean Temperature 26 °F 44 °F  
Max Temperature 42 °F 55 °F 77 °F (2001)
Min Temperature 10 °F 33 °F 10 °F (2013)
Degree Days  
Heating Degree Days 39 21  
Month to date heating degree days 532 427  
Since 1 July heating degree days 6416 6617  
Cooling Degree Days 0 0  
Month to date cooling degree days 0 0  
Year to date cooling degree days 0 0  
Moisture  
Dew Point 14 °F    
Average Humidity 58    
Maximum Humidity 80    
Minimum Humidity 36    
Precipitation  
Precipitation 0.00 in 0.04 in 0.80 in (2000)
Month to date precipitation 0.36 0.58  
Year to date precipitation 1.05 2.27  
Sea Level Pressure  
Sea Level Pressure 30.20 in    
Wind  
Wind Speed 15 mph (NNW)    
Max Wind Speed 35 mph    
Max Gust Speed 44 mph    
Visibility 10 miles    
Events      
T = Trace of Precipitation, MM = Missing Value Source: NWS Daily Summary

Daily Weather History Graph

Daily Weather History Graph

Search for Another Location

Airport:

Trip Planner

Search our weather history database for the weather conditions in past years. The results will help you decide how hot, cold, wet, or windy it might be!

Date:

Astronomy

Apr. 18, 2013 Rise Set
Actual Time 6:17 AM MDT 7:55 PM MDT
Civil Twilight 5:46 AM MDT 8:26 PM MDT
Nautical Twilight 5:09 AM MDT 9:03 PM MDT
Astronomical Twilight 4:30 AM MDT 9:43 PM MDT
Moon 12:29 PM MDT (4/18) 2:14 AM MDT (4/18)
Length of Visible Light 14h 39m
Length of Day
13h 38m
First Quarter, 52% of the Moon is Illuminated
Apr 18
First Quarter
Apr 25
Full
May 2
Last Quarter
May 9
New
May 17
First Quarter

Hourly Weather History & Observations

Time (MDT) Temp. Windchill Dew Point Humidity Pressure Visibility Wind Dir Wind Speed Gust Speed Precip Events Conditions
12:53 AM 18.0 °F 6.9 °F 12.9 °F 81% 30.31 in 10.0 mi NW 9.2 mph - N/A   Clear
1:53 AM 15.1 °F - 7.0 °F 70% 30.31 in 10.0 mi Calm Calm - N/A   Partly Cloudy
2:53 AM 15.1 °F 5.2 °F 6.1 °F 68% 30.27 in 10.0 mi WNW 6.9 mph - N/A   Partly Cloudy
3:53 AM 14.0 °F 3.9 °F 6.1 °F 71% 30.27 in 10.0 mi NW 6.9 mph - N/A   Clear
4:53 AM 15.1 °F 6.4 °F 3.9 °F 61% 30.25 in 10.0 mi NNW 5.8 mph - N/A   Clear
5:53 AM 15.1 °F 9.4 °F 3.9 °F 61% 30.26 in 10.0 mi North 3.5 mph - N/A   Clear
6:53 AM 14.0 °F - 5.0 °F 67% 30.27 in 10.0 mi Calm Calm - N/A   Clear
7:53 AM 19.9 °F - 9.0 °F 62% 30.26 in 10.0 mi Calm Calm - N/A   Clear
8:53 AM 24.1 °F 16.0 °F 10.9 °F 57% 30.25 in 10.0 mi North 6.9 mph - N/A   Clear
9:53 AM 27.0 °F 16.1 °F 14.0 °F 58% 30.24 in 10.0 mi North 12.7 mph 21.9 mph N/A   Clear
10:53 AM 28.9 °F 16.5 °F 16.0 °F 58% 30.22 in 10.0 mi North 18.4 mph - N/A   Clear
11:53 AM 32.0 °F 19.8 °F 19.0 °F 59% 30.19 in 10.0 mi North 20.7 mph - N/A   Clear
12:53 PM 34.0 °F 22.4 °F 19.9 °F 56% 30.19 in 10.0 mi North 20.7 mph 34.5 mph N/A   Clear
1:53 PM 37.0 °F 25.1 °F 19.9 °F 50% 30.18 in 10.0 mi North 26.5 mph 34.5 mph N/A   Clear
2:53 PM 39.9 °F 28.2 °F 18.0 °F 41% 30.15 in 10.0 mi North 31.1 mph 39.1 mph N/A   Clear
3:53 PM 41.0 °F 30.2 °F 17.1 °F 38% 30.14 in 10.0 mi North 27.6 mph 38.0 mph N/A   Clear
4:53 PM 42.1 °F 31.7 °F 18.0 °F 38% 30.13 in 10.0 mi North 27.6 mph 39.1 mph N/A   Clear
5:53 PM 42.1 °F 32.6 °F 17.1 °F 37% 30.13 in 10.0 mi North 23.0 mph 36.8 mph N/A   Scattered Clouds
6:53 PM 41.0 °F 30.9 °F 17.1 °F 38% 30.14 in 10.0 mi NNW 24.2 mph 38.0 mph N/A   Overcast
7:53 PM 39.0 °F 31.0 °F 18.0 °F 43% 30.13 in 10.0 mi NNW 13.8 mph 24.2 mph N/A   Overcast
8:53 PM 37.9 °F 29.2 °F 19.0 °F 47% 30.14 in 10.0 mi NNW 15.0 mph 26.5 mph N/A   Overcast
9:53 PM 37.0 °F 27.0 °F 23.0 °F 57% 30.12 in 10.0 mi NNW 18.4 mph 26.5 mph N/A   Mostly Cloudy
10:53 PM 36.0 °F 28.0 °F 21.9 °F 57% 30.10 in 10.0 mi NW 11.5 mph - N/A   Partly Cloudy
11:53 PM 39.0 °F 29.9 °F 19.9 °F 46% 30.07 in 10.0 mi NW 17.3 mph 26.5 mph N/A   Clear